When you browse on this site, cookies collect data to enhance your experience and personalize the content and advertising you see.
Visit our Privacy Policy to learn more. By continuing to use the site, you agree to this use of cookies and data.
  • în România
  • Lista ţărilor
  • Pe 7 zile
  • Temperatura apei
  • Meteo pe hartă
  • Widget-uri
  • user-avatar
    Intrare

    Meteo pe oră la Mostar

    Astăzi, 22 Februarie, Sâmbătă

    Timp Temperatura Precipitaţii Vânt Presiune Umiditate
    00:00 +5°C° 0 mm 2 m/s 764 mmHg 70%
    01:00 +4°C° 0 mm 2 m/s 764 mmHg 71%
    02:00 +4°C° 0 mm 2 m/s 764 mmHg 71%
    03:00 +4°C° 0 mm 2 m/s 764 mmHg 72%
    04:00 +2°C° 0 mm 3 m/s 764 mmHg 72%
    05:00 +2°C° 0 mm 3 m/s 765 mmHg 72%
    06:00 +2°C° 0 mm 3 m/s 765 mmHg 72%
    07:00 +2°C° 0 mm 3 m/s 766 mmHg 70%
    08:00 +4°C° 0 mm 3 m/s 766 mmHg 63%
    09:00 +5°C° 0 mm 3 m/s 766 mmHg 56%
    10:00 +8°C° 0 mm 3 m/s 766 mmHg 49%
    11:00 +9°C° 0 mm 3 m/s 766 mmHg 44%
    12:00 +10°C° 0 mm 3 m/s 766 mmHg 40%
    13:00 +12°C° 0 mm 2 m/s 766 mmHg 35%
    14:00 +12°C° 0 mm 2 m/s 766 mmHg 38%
    15:00 +12°C° 0 mm 2 m/s 765 mmHg 41%
    16:00 +12°C° 0 mm 2 m/s 765 mmHg 45%
    17:00 +11°C° 0 mm 1 m/s 765 mmHg 48%
    18:00 +9°C° 0 mm 1 m/s 765 mmHg 52%
    19:00 +8°C° 0 mm 1 m/s 765 mmHg 55%
    20:00 +8°C° 0 mm 1 m/s 765 mmHg 55%
    21:00 +7°C° 0 mm 1 m/s 765 mmHg 55%
    22:00 +7°C° 0 mm 1 m/s 766 mmHg 55%
    23:00 +7°C° 0 mm 1 m/s 765 mmHg 54%

    Mâine, 23 Februarie, Duminică

    Timp Temperatura Precipitaţii Vânt Presiune Umiditate
    00:00 +7°C° 0 mm 1 m/s 765 mmHg 53%
    01:00 +7°C° 0 mm 1 m/s 765 mmHg 52%
    02:00 +7°C° 0 mm 1 m/s 765 mmHg 52%
    03:00 +7°C° 0 mm 1 m/s 764 mmHg 51%
    04:00 +7°C° 0 mm 1 m/s 764 mmHg 51%
    05:00 +7°C° 0 mm 1 m/s 764 mmHg 51%
    06:00 +7°C° 0 mm 1 m/s 763 mmHg 51%
    07:00 +7°C° 0 mm 1 m/s 763 mmHg 51%
    08:00 +9°C° 0 mm 1 m/s 763 mmHg 49%
    09:00 +11°C° 0 mm 1 m/s 763 mmHg 46%
    10:00 +13°C° 0 mm 1 m/s 762 mmHg 44%
    11:00 +13°C° 0 mm 1 m/s 762 mmHg 45%
    12:00 +14°C° 0 mm 1 m/s 762 mmHg 45%
    13:00 +14°C° 0 mm 1 m/s 761 mmHg 46%
    14:00 +14°C° 0 mm 1 m/s 761 mmHg 49%
    15:00 +14°C° 0 mm 1 m/s 760 mmHg 52%
    16:00 +14°C° 0 mm 1 m/s 760 mmHg 55%
    17:00 +12°C° 0 mm 1 m/s 760 mmHg 60%
    18:00 +11°C° 0 mm 1 m/s 760 mmHg 65%
    19:00 +9°C° 0 mm 0 m/s 760 mmHg 69%
    20:00 +9°C° 0 mm 0 m/s 760 mmHg 70%
    21:00 +8°C° 0 mm 0 m/s 760 mmHg 71%
    22:00 +8°C° 0 mm 0 m/s 760 mmHg 72%
    23:00 +8°C° 0 mm 0 m/s 759 mmHg 74%

    Poimâine, 24 Februarie, Luni

    Timp Temperatura Precipitaţii Vânt Presiune Umiditate
    00:00 +8°C° 0 mm 0 m/s 759 mmHg 75%
    01:00 +7°C° 0 mm 0 m/s 759 mmHg 76%
    02:00 +8°C° 0 mm 1 m/s 759 mmHg 77%
    03:00 +8°C° 0 mm 1 m/s 759 mmHg 78%
    04:00 +8°C° 0 mm 1 m/s 758 mmHg 79%
    05:00 +8°C° 0 mm 1 m/s 758 mmHg 79%
    06:00 +8°C° 0 mm 1 m/s 759 mmHg 80%
    07:00 +8°C° 0 mm 1 m/s 759 mmHg 80%
    08:00 +10°C° 0 mm 1 m/s 759 mmHg 75%
    09:00 +12°C° 0 mm 1 m/s 759 mmHg 70%
    10:00 +13°C° 0 mm 1 m/s 759 mmHg 65%
    11:00 +15°C° 0 mm 1 m/s 759 mmHg 62%
    12:00 +16°C° 0 mm 1 m/s 759 mmHg 58%
    13:00 +18°C° 0 mm 1 m/s 759 mmHg 55%
    14:00 +18°C° 0 mm 1 m/s 758 mmHg 58%
    15:00 +18°C° 0 mm 1 m/s 758 mmHg 61%
    16:00 +16°C° 0 mm 1 m/s 758 mmHg 64%
    17:00 +15°C° 0 mm 1 m/s 758 mmHg 70%
    18:00 +13°C° 0 mm 1 m/s 758 mmHg 75%
    19:00 +12°C° 0 mm 1 m/s 758 mmHg 80%
    20:00 +12°C° 0 mm 1 m/s 758 mmHg 80%
    21:00 +12°C° 0 mm 1 m/s 758 mmHg 80%
    22:00 +11°C° 0 mm 1 m/s 758 mmHg 79%
    23:00 +11°C° 0 mm 1 m/s 757 mmHg 79%

    25 Februarie, Marţi

    Timp Temperatura Precipitaţii Vânt Presiune Umiditate
    00:00 +11°C° 0 mm 1 m/s 757 mmHg 79%
    01:00 +11°C° 0 mm 1 m/s 757 mmHg 79%
    02:00 +11°C° 0 mm 1 m/s 756 mmHg 78%
    03:00 +11°C° 0 mm 1 m/s 755 mmHg 78%
    04:00 +10°C° 0 mm 1 m/s 755 mmHg 78%
    05:00 +10°C° 0 mm 1 m/s 755 mmHg 78%
    06:00 +10°C° 0 mm 1 m/s 755 mmHg 78%
    07:00 +10°C° 0 mm 1 m/s 755 mmHg 79%
    08:00 +12°C° 0 mm 2 m/s 754 mmHg 75%
    09:00 +13°C° 0 mm 2 m/s 754 mmHg 72%
    10:00 +13°C° 0 mm 3 m/s 754 mmHg 68%
    11:00 +14°C° 0 mm 3 m/s 753 mmHg 70%
    12:00 +14°C° 0 mm 4 m/s 753 mmHg 71%
    13:00 +14°C° 0 mm 5 m/s 753 mmHg 73%
    14:00 +14°C° 0.1 mm 5 m/s 752 mmHg 76%
    15:00 +13°C° 0.1 mm 5 m/s 751 mmHg 80%
    16:00 +13°C° 0.1 mm 4 m/s 751 mmHg 83%
    17:00 +12°C° 0.1 mm 4 m/s 751 mmHg 85%
    18:00 +12°C° 0.1 mm 4 m/s 751 mmHg 86%
    19:00 +12°C° 0.1 mm 3 m/s 751 mmHg 88%
    20:00 +12°C° 0.1 mm 3 m/s 750 mmHg 88%
    21:00 +12°C° 0.1 mm 3 m/s 750 mmHg 87%
    22:00 +12°C° 0.1 mm 3 m/s 750 mmHg 87%
    23:00 +12°C° 0.2 mm 3 m/s 749 mmHg 89%

    26 Februarie, Miercuri

    Timp Temperatura Precipitaţii Vânt Presiune Umiditate
    00:00 +12°C° 0.2 mm 4 m/s 749 mmHg 91%
    01:00 +12°C° 0.2 mm 4 m/s 748 mmHg 93%
    02:00 +12°C° 0.3 mm 4 m/s 747 mmHg 93%
    03:00 +12°C° 0.3 mm 4 m/s 747 mmHg 93%
    04:00 +12°C° 0.3 mm 4 m/s 746 mmHg 93%
    05:00 +11°C° 0.4 mm 4 m/s 745 mmHg 93%
    06:00 +11°C° 0.4 mm 4 m/s 745 mmHg 93%
    07:00 +10°C° 0.4 mm 5 m/s 744 mmHg 93%
    08:00 +10°C° 0.3 mm 5 m/s 744 mmHg 90%
    09:00 +12°C° 0.3 mm 5 m/s 744 mmHg 87%
    10:00 +11°C° 0.3 mm 6 m/s 743 mmHg 85%
    11:00 +11°C° 0.7 mm 6 m/s 743 mmHg 83%
    12:00 +13°C° 0.7 mm 6 m/s 742 mmHg 82%
    13:00 +13°C° 0.7 mm 6 m/s 741 mmHg 81%
    14:00 +13°C° 0.6 mm 5 m/s 741 mmHg 80%
    15:00 +13°C° 0.6 mm 4 m/s 741 mmHg 80%
    16:00 +12°C° 0.6 mm 3 m/s 740 mmHg 80%
    17:00 +12°C° 0.6 mm 3 m/s 740 mmHg 82%
    18:00 +12°C° 0.6 mm 2 m/s 741 mmHg 85%
    19:00 +10°C° 0.6 mm 2 m/s 741 mmHg 87%
    20:00 +10°C° 0.6 mm 2 m/s 741 mmHg 87%
    21:00 +10°C° 0.6 mm 1 m/s 741 mmHg 87%
    22:00 +10°C° 0.6 mm 1 m/s 741 mmHg 88%
    23:00 +9°C° 0.7 mm 2 m/s 741 mmHg 88%

    27 Februarie, Joi

    Timp Temperatura Precipitaţii Vânt Presiune Umiditate
    00:00 +9°C° 0.7 mm 3 m/s 741 mmHg 88%
    01:00 +8°C° 0.7 mm 4 m/s 741 mmHg 89%
    02:00 +8°C° 0.9 mm 3 m/s 742 mmHg 90%
    03:00 +7°C° 0.9 mm 2 m/s 742 mmHg 92%
    04:00 +5°C° 0.9 mm 2 m/s 742 mmHg 94%
    05:00 +5°C° 0.3 mm 2 m/s 742 mmHg 92%
    06:00 +5°C° 0.3 mm 2 m/s 743 mmHg 91%
    07:00 +5°C° 0.3 mm 2 m/s 744 mmHg 89%
    08:00 +5°C° 0.4 mm 3 m/s 745 mmHg 83%
    09:00 +5°C° 0.4 mm 4 m/s 746 mmHg 76%
    10:00 +6°C° 0.4 mm 5 m/s 747 mmHg 69%
    11:00 +6°C° 0 mm 5 m/s 748 mmHg 65%
    12:00 +7°C° 0 mm 6 m/s 748 mmHg 61%
    13:00 +7°C° 0 mm 6 m/s 749 mmHg 57%
    14:00 +7°C° 0 mm 6 m/s 750 mmHg 56%
    15:00 +7°C° 0 mm 6 m/s 750 mmHg 55%
    16:00 +7°C° 0 mm 5 m/s 751 mmHg 55%
    17:00 +6°C° 0 mm 5 m/s 752 mmHg 58%
    18:00 +3°C° 0 mm 5 m/s 753 mmHg 61%
    19:00 +2°C° 0 mm 5 m/s 754 mmHg 64%
    20:00 +2°C° 0 mm 5 m/s 755 mmHg 64%
    21:00 +2°C° 0 mm 5 m/s 755 mmHg 64%
    22:00 +1°C° 0 mm 5 m/s 756 mmHg 64%
    23:00 +1°C° 0 mm 5 m/s 757 mmHg 65%
    Arată mai mult